1505692800.72,22193,13.31,73124.3,-2.67,-3.35,-3.35,0,*58
1505692801.94,22194,13.31,73124.0,-2.67,-3.35,-3.31,0,*5B
1505692803.17,22195,13.31,73122.0,-2.67,-3.31,-3.35,0,*5A
1505692804.39,22196,13.31,73116.8,-2.67,-3.35,-3.35,0,*5D
1505692805.61,22197,13.31,73116.8,-2.67,-3.35,-3.35,0,*5C
1505692806.84,22198,13.31,73116.5,-2.67,-3.35,-3.35,0,*53
1505692808.06,22199,13.31,73116.8,-2.67,-3.31,-3.31,0,*52
1505692809.28,22200,13.31,73122.3,-2.67,-3.31,-3.31,0,*51
1505692810.51,22201,13.31,73114.0,-2.67,-3.31,-3.31,0,*50
1505692811.72,22202,13.31,73114.8,-2.67,-3.23,-3.23,0,*53
1505692812.94,22203,13.31,73112.3,-2.67,-3.31,-3.23,0,*51
1505692814.13,22204,13.31,73122.0,-2.65,-3.31,-3.31,0,*57
1505692815.37,22205,13.31,73120.8,-2.65,-3.43,-3.43,0,*56
1505692816.61,22206,13.31,73122.3,-2.65,-3.43,-3.43,0,*55
1505692817.88,22207,13.31,73126.0,-2.67,-3.47,-3.47,0,*56
1505692819.12,22208,13.31,73114.5,-2.65,-3.55,-3.55,0,*5B
1505692820.38,22209,13.31,73118.3,-2.67,-3.71,-3.71,0,*58
1505692821.64,22210,13.31,73112.3,-2.67,-3.71,-3.71,0,*50
1505692822.88,22211,13.31,73104.8,-2.65,-3.71,-3.67,0,*54
1505692824.11,22212,13.31,73106.0,-2.67,-3.75,-3.75,0,*52
1505692825.34,22213,13.31,73106.0,-2.67,-3.83,-3.83,0,*53
1505692826.55,22214,13.31,73110.0,-2.65,-3.79,-3.79,0,*56
1505692827.77,22215,13.31,73108.3,-2.67,-3.83,-3.83,0,*55
1505692829.01,22216,13.31,73112.5,-2.67,-3.83,-3.75,0,*5F
1505692830.24,22217,13.31,73106.5,-2.67,-3.83,-3.75,0,*5E
1505692831.47,22218,13.31,73104.8,-2.67,-3.83,-3.75,0,*51
1505692832.7,22219,13.31,73100.8,-2.67,-3.83,-3.83,0,*59
1505692833.91,22220,13.31,73102.3,-2.69,-3.83,-3.83,0,*5D
1505692835.11,22221,13.31,73100.0,-2.73,-3.75,-3.83,0,*5E
1505692836.32,22222,13.31,73110.5,-2.69,-3.83,-3.75,0,*56
1505692837.53,22223,13.31,73110.8,-2.69,-3.83,-3.87,0,*5A
1505692838.78,22224,13.31,73108.0,-2.73,-4.01,-4.01,0,*52
1505692840.01,22225,13.31,73112.8,-2.69,-4.01,-3.87,0,*51
1505692841.21,22226,13.31,73114.5,-2.69,-3.87,-3.83,0,*5F
1505692842.42,22227,13.31,73108.8,-2.73,-3.79,-3.91,0,*57
1505692843.63,22228,13.31,73104.3,-2.73,-3.79,-3.79,0,*5E
1505692844.83,22229,13.31,73106.5,-2.73,-3.79,-3.75,0,*53
1505692846.03,22230,13.31,73094.0,-2.73,-3.87,-3.79,0,*56
1505692847.26,22231,13.31,73100.5,-2.75,-3.79,-3.87,0,*51
1505692848.49,22232,13.31,73104.0,-2.75,-3.87,-3.87,0,*53
1505692849.73,22233,13.31,73120.8,-2.75,-3.91,-3.91,0,*52
1505692850.96,22234,13.31,73126.5,-2.75,-3.91,-3.91,0,*55
1505692852.19,22235,13.31,73116.5,-2.75,-3.87,-3.87,0,*54
1505692853.42,22236,13.31,73110.3,-2.75,-3.87,-3.91,0,*50
1505692854.68,22237,13.31,73114.5,-2.75,-3.79,-4.01,0,*5E
1505692855.9,22238,13.31,73104.5,-2.75,-3.87,-3.91,0,*5E
1505692857.13,22239,13.31,73106.8,-2.75,-3.87,-3.79,0,*59
1505692858.36,22240,13.31,73108.0,-2.77,-3.83,-3.83,0,*54
1505692859.61,22241,13.31,73114.0,-2.77,-3.83,-3.71,0,*58
1505692860.84,22242,13.31,73118.0,-2.77,-3.83,-3.79,0,*53
1505692862.07,22243,13.31,73116.8,-2.77,-3.79,-3.79,0,*57
1505692863.31,22244,13.31,73110.5,-2.73,-3.67,-3.67,0,*54
1505692864.57,22245,13.31,73110.5,-2.75,-3.63,-3.55,0,*56
1505692865.85,22246,13.31,73110.3,-2.77,-3.67,-3.59,0,*5F
1505692867.11,22247,13.31,73110.0,-2.75,-3.55,-3.55,0,*51
1505692868.38,22248,13.31,73112.8,-2.75,-3.55,-3.55,0,*5E
1505692869.65,22249,13.31,73112.8,-2.77,-3.59,-3.59,0,*5D
1505692870.92,22250,13.31,73116.5,-2.75,-3.55,-3.55,0,*57
1505692872.18,22251,13.31,73118.3,-2.75,-3.55,-3.55,0,*56
1505692873.45,22252,13.31,73122.5,-2.75,-3.55,-3.55,0,*55
1505692874.72,22253,13.31,73124.3,-2.75,-3.55,-3.55,0,*54
1505692875.99,22254,13.31,73120.8,-2.75,-3.63,-3.63,0,*53
1505692877.26,22255,13.31,73126.3,-2.75,-3.67,-3.63,0,*56
1505692878.52,22256,13.31,73126.8,-2.75,-3.67,-3.67,0,*51
1505692879.76,22257,13.31,73124.3,-2.75,-3.75,-3.75,0,*50
1505692880.99,22258,13.31,73122.8,-2.75,-3.79,-3.79,0,*5F
1505692882.22,22259,13.31,73124.8,-2.75,-3.87,-3.87,0,*5E
1505692883.45,22260,13.31,73122.0,-2.75,-3.79,-3.79,0,*54
1505692884.69,22261,13.31,73116.8,-2.75,-3.75,-3.75,0,*55
1505692885.93,22262,13.31,73120.3,-2.75,-3.79,-3.79,0,*56
1505692887.16,22263,13.31,73122.5,-2.77,-3.91,-3.91,0,*55
1505692888.39,22264,13.31,73130.0,-2.77,-3.83,-3.91,0,*51
1505692889.62,22265,13.31,73116.5,-2.75,-3.79,-3.79,0,*51
1505692890.85,22266,13.31,73128.3,-2.77,-3.83,-3.83,0,*50
1505692892.08,22267,13.31,73116.5,-2.77,-3.91,-3.83,0,*52
1505692893.29,22268,13.31,73110.5,-2.79,-3.91,-3.91,0,*50
1505692894.49,22269,13.31,73104.5,-2.79,-3.83,-3.91,0,*52
1505692895.7,22270,13.31,73110.5,-2.79,-3.91,-3.91,0,*59
1505692896.91,22271,13.31,73114.8,-2.79,-3.91,-3.91,0,*58
1505692898.13,22272,13.31,73114.0,-2.81,-3.95,-3.95,0,*5C
1505692899.36,22273,13.31,73110.0,-2.77,-3.91,-3.83,0,*57
1505692900.56,22274,13.31,73102.8,-2.79,-3.83,-3.83,0,*5D
1505692901.77,22275,13.31,73100.5,-2.79,-3.83,-3.79,0,*59
1505692903.02,22276,13.31,73110.8,-2.77,-3.79,-3.67,0,*5E
1505692904.28,22277,13.31,73118.3,-2.77,-3.67,-3.67,0,*50
1505692905.53,22278,13.31,73110.8,-2.77,-3.67,-3.79,0,*50
1505692906.79,22279,13.31,73122.5,-2.77,-3.71,-3.71,0,*5E
1505692908.03,22280,13.31,73114.0,-2.79,-3.67,-3.67,0,*56
1505692909.27,22281,13.31,73110.5,-2.79,-3.55,-3.51,0,*53
1505692910.53,22282,13.31,73120.3,-2.77,-3.55,-3.55,0,*5A
1505692911.8,22283,13.31,73108.8,-2.77,-3.59,-3.67,0,*56
1505692913.07,22284,13.31,73116.5,-2.77,-3.59,-3.59,0,*5C
1505692914.32,22285,13.31,73108.8,-2.79,-3.59,-3.59,0,*53
1505692915.6,22286,13.31,73114.0,-2.77,-3.59,-3.59,0,*5E
1505692916.87,22287,13.31,73112.5,-2.77,-3.59,-3.59,0,*5F
1505692918.14,22288,13.31,73116.3,-2.77,-3.59,-3.59,0,*50
1505692919.41,22289,13.31,73112.8,-2.75,-3.55,-3.55,0,*53
1505692920.67,22290,13.31,73116.0,-2.77,-3.55,-3.55,0,*59
1505692921.93,22291,13.31,73122.3,-2.77,-3.55,-3.55,0,*58
1505692923.2,22292,13.31,73118.0,-2.77,-3.55,-3.59,0,*57
1505692924.47,22293,13.31,73116.8,-2.77,-3.55,-3.59,0,*56
1505692925.74,22294,13.31,73116.3,-2.75,-3.51,-3.47,0,*58
1505692927.01,22295,13.31,73118.5,-2.75,-3.51,-3.51,0,*5E
1505692928.28,22296,13.31,73118.3,-2.75,-3.51,-3.51,0,*5D
1505692929.56,22297,13.31,73116.5,-2.75,-3.51,-3.51,0,*5C
1505692930.83,22298,13.31,73116.3,-2.75,-3.51,-3.51,0,*53
1505692932.09,22299,13.31,73116.5,-2.77,-3.55,-3.55,0,*50
1505692933.36,22300,13.31,73114.3,-2.77,-3.59,-3.59,0,*51
1505692934.63,22301,13.31,73116.8,-2.75,-3.51,-3.55,0,*56
1505692935.9,22302,13.31,73114.3,-2.77,-3.55,-3.55,0,*53
1505692937.14,22303,13.31,73108.0,-2.73,-3.47,-3.51,0,*51
1505692938.41,22304,13.31,73114.8,-2.77,-3.51,-3.51,0,*55
1505692939.65,22305,13.31,73122.0,-2.75,-3.39,-3.47,0,*5F
1505692940.92,22306,13.31,73114.0,-2.75,-3.51,-3.47,0,*52
1505692942.16,22307,13.31,73104.8,-2.73,-3.55,-3.63,0,*57
1505692943.43,22308,13.31,73098.5,-2.75,-3.55,-3.55,0,*5B
1505692944.7,22309,13.31,73098.0,-2.75,-3.51,-3.47,0,*5D
1505692945.97,22310,13.31,73110.0,-2.75,-3.51,-3.51,0,*52
1505692947.25,22311,13.31,73106.3,-2.75,-3.47,-3.51,0,*54
1505692948.52,22312,13.31,73114.8,-2.75,-3.51,-3.51,0,*50
1505692949.79,22313,13.31,73114.8,-2.75,-3.47,-3.51,0,*56
1505692951.03,22314,13.31,73116.8,-2.73,-3.51,-3.55,0,*54
1505692952.27,22315,13.31,73122.5,-2.73,-3.55,-3.63,0,*54
1505692953.51,22316,13.31,73116.3,-2.73,-3.55,-3.55,0,*52
1505692954.77,22317,13.31,73122.5,-2.75,-3.55,-3.55,0,*55
1505692956.04,22318,13.31,73114.5,-2.75,-3.55,-3.63,0,*5F
1505692957.28,22319,13.31,73110.3,-2.73,-3.55,-3.63,0,*58
1505692958.51,22320,13.31,73096.8,-2.73,-3.55,-3.55,0,*57
1505692959.75,22321,13.31,73096.8,-2.73,-3.47,-3.47,0,*56
1505692961.0,22322,13.31,73096.3,-2.73,-3.51,-3.51,0,*55
1505692962.24,22323,13.31,73092.8,-2.73,-3.51,-3.51,0,*54
1505692963.48,22324,13.31,73110.5,-2.73,-3.55,-3.63,0,*56
1505692964.75,22325,13.31,73122.8,-2.75,-3.55,-3.55,0,*54
1505692966.02,22326,13.31,73126.8,-2.75,-3.63,-3.63,0,*57
1505692967.26,22327,13.31,73124.3,-2.73,-3.55,-3.63,0,*55
1505692968.49,22328,13.31,73120.3,-2.73,-3.55,-3.63,0,*5A
1505692969.74,22329,13.31,73116.3,-2.73,-3.63,-3.67,0,*5A
1505692970.97,22330,13.31,73116.8,-2.75,-3.75,-3.75,0,*50
1505692972.22,22331,13.31,73124.3,-2.75,-3.67,-3.75,0,*52
1505692973.49,22332,13.31,73126.5,-2.75,-3.67,-3.67,0,*52
1505692974.74,22333,13.31,73134.3,-2.75,-3.75,-3.67,0,*50
1505692976.01,22334,13.31,73138.0,-2.75,-3.67,-3.67,0,*54
1505692977.28,22335,13.31,73130.5,-2.75,-3.67,-3.67,0,*55
1505692978.55,22336,13.31,73134.0,-2.75,-3.67,-3.67,0,*56
1505692979.82,22337,13.31,73124.8,-2.75,-3.67,-3.67,0,*57
1505692981.05,22338,13.31,73106.8,-2.75,-3.75,-3.75,0,*58
1505692982.3,22339,13.31,73100.0,-2.75,-3.67,-3.75,0,*5A
1505692983.57,22340,13.31,73114.8,-2.77,-3.71,-3.71,0,*55
1505692984.83,22341,13.31,73104.0,-2.77,-3.71,-3.71,0,*54
1505692986.07,22342,13.31,73106.0,-2.77,-3.71,-3.79,0,*5F
1505692987.33,22343,13.31,73102.0,-2.75,-3.75,-3.67,0,*57
1505692988.56,22344,13.31,73106.8,-2.75,-3.75,-3.79,0,*5F
1505692989.8,22345,13.31,73106.5,-2.75,-3.75,-3.75,0,*52
1505692991.02,22346,13.31,73106.5,-2.77,-3.79,-3.83,0,*56
1505692992.25,22347,13.31,73112.0,-2.77,-3.83,-3.83,0,*52
1505692993.48,22348,13.31,73112.0,-2.77,-3.83,-3.91,0,*5E
1505692994.71,22349,13.31,73110.3,-2.77,-3.83,-3.91,0,*5F
1505692995.94,22350,13.31,73114.8,-2.77,-3.91,-3.91,0,*54
1505692997.17,22351,13.31,73112.0,-2.77,-3.91,-3.83,0,*56
1505692998.4,22352,13.31,73112.0,-2.77,-3.91,-3.91,0,*56
1505692999.64,22353,13.31,73112.8,-2.75,-3.75,-3.79,0,*59
1505693000.87,22354,13.31,73114.3,-2.77,-3.83,-3.83,0,*50
1505693002.1,22355,13.31,73120.8,-2.77,-3.79,-3.79,0,*51
1505693003.36,22356,13.31,73118.5,-2.77,-3.71,-3.71,0,*52
1505693004.6,22357,13.31,73108.0,-2.77,-3.71,-3.79,0,*5B
1505693005.83,22358,13.31,73112.8,-2.77,-3.79,-3.79,0,*5C
1505693007.1,22359,13.31,73102.5,-2.77,-3.71,-3.71,0,*5D
1505693008.33,22360,13.31,73098.5,-2.77,-3.83,-3.79,0,*52
1505693009.57,22361,13.31,73098.3,-2.77,-3.79,-3.71,0,*5E
1505693010.84,22362,13.31,73100.5,-2.77,-3.67,-3.67,0,*55
1505693012.1,22363,13.31,73096.5,-2.77,-3.67,-3.67,0,*54
1505693013.36,22364,13.31,73104.8,-2.77,-3.67,-3.71,0,*54
1505693014.62,22365,13.31,73100.3,-2.77,-3.71,-3.71,0,*52
1505693015.89,22366,13.31,73100.8,-2.77,-3.59,-3.67,0,*5C
1505693017.16,22367,13.31,73104.0,-2.77,-3.59,-3.59,0,*50
1505693018.44,22368,13.31,73100.8,-2.77,-3.59,-3.59,0,*5F
1505693019.68,22369,13.31,73098.5,-2.79,-3.55,-3.59,0,*5C
1505693020.94,22370,13.31,73104.8,-2.77,-3.71,-3.67,0,*51
1505693022.19,22371,13.31,73106.5,-2.77,-3.79,-3.71,0,*5F
1505693023.45,22372,13.31,73100.5,-2.77,-3.67,-3.67,0,*54
1505693024.72,22373,13.31,73088.3,-2.77,-3.71,-3.67,0,*52
1505693025.98,22374,13.31,73112.3,-2.77,-3.67,-3.67,0,*52
1505693027.23,22375,13.31,73106.8,-2.77,-3.79,-3.67,0,*5C
1505693028.47,22376,13.31,73102.0,-2.77,-3.79,-3.71,0,*58
1505693029.7,22377,13.31,73090.5,-2.77,-3.83,-3.79,0,*54
1505693030.93,22378,13.31,73084.8,-2.77,-3.91,-3.91,0,*5E
1505693032.14,22379,13.31,73090.0,-2.79,-3.79,-3.83,0,*54
1505693033.35,22380,13.31,73090.8,-2.79,-3.79,-3.79,0,*57
1505693034.61,22381,13.31,73096.0,-2.77,-3.71,-3.67,0,*5F
1505693035.85,22382,13.31,73100.3,-2.79,-3.71,-3.67,0,*52
1505693037.09,22383,13.31,73106.5,-2.79,-3.71,-3.71,0,*54
1505693038.33,22384,13.31,73108.3,-2.79,-3.71,-3.67,0,*54
1505693039.57,22385,13.31,73106.3,-2.79,-3.67,-3.67,0,*52
1505693040.8,22386,13.31,73106.3,-2.79,-3.67,-3.67,0,*51
1505693042.07,22387,13.31,73104.0,-2.77,-3.67,-3.71,0,*59
1505693043.31,22388,13.31,73106.0,-2.79,-3.67,-3.71,0,*58
1505693044.57,22389,13.31,73106.5,-2.77,-3.67,-3.71,0,*57
1505693045.82,22390,13.31,73104.8,-2.79,-3.67,-3.59,0,*5B
1505693047.02,22391,13.31,73110.3,-2.79,-3.83,-3.83,0,*57
1505693048.28,22392,13.31,73114.8,-2.77,-3.71,-3.71,0,*5A
1505693049.51,22393,13.31,73108.5,-2.79,-3.71,-3.79,0,*5D
1505693050.73,22394,13.31,73102.0,-2.79,-3.79,-3.71,0,*5A
1505693051.94,22395,13.31,73106.3,-2.79,-3.79,-3.79,0,*53
1505693053.18,22396,13.31,73114.5,-2.77,-3.71,-3.79,0,*56
1505693054.41,22397,13.31,73114.5,-2.81,-3.83,-3.83,0,*56
1505693055.61,22398,13.31,73118.3,-2.79,-3.83,-3.79,0,*5B
1505693056.82,22399,13.31,73114.0,-2.79,-3.83,-3.83,0,*5F
1505693058.05,22400,13.31,73118.0,-2.77,-3.79,-3.79,0,*56
1505693059.27,22401,13.31,73110.5,-2.77,-3.79,-3.83,0,*52
1505693060.49,22402,13.31,73106.3,-2.81,-3.87,-3.87,0,*5D
1505693061.7,22403,13.31,73098.5,-2.79,-3.79,-3.79,0,*5B
1505693062.9,22404,13.31,73108.8,-2.79,-3.87,-3.95,0,*5F
1505693064.1,22405,13.31,73110.0,-2.79,-3.91,-3.91,0,*5D
1505693065.32,22406,13.31,73108.0,-2.81,-3.87,-3.83,0,*5D
1505693066.55,22407,13.31,73120.0,-2.81,-3.83,-3.75,0,*51
1505693067.79,22408,13.31,73104.0,-2.81,-3.75,-3.71,0,*53
1505693069.05,22409,13.31,73100.0,-2.81,-3.71,-3.71,0,*56
1505693070.31,22410,13.31,73114.3,-2.81,-3.63,-3.71,0,*5D
1505693071.58,22411,13.31,73110.5,-2.81,-3.63,-3.63,0,*5F
1505693072.84,22412,13.31,73114.5,-2.81,-3.71,-3.63,0,*5F
1505693074.1,22413,13.31,73116.5,-2.81,-3.71,-3.63,0,*5E
1505693075.36,22414,13.31,73114.8,-2.81,-3.71,-3.63,0,*59
1505693076.62,22415,13.31,73114.3,-2.81,-3.63,-3.63,0,*5B
1505693077.87,22416,13.31,73112.5,-2.79,-3.59,-3.59,0,*5F
1505693079.13,22417,13.31,73116.3,-2.81,-3.71,-3.63,0,*5A
1505693080.39,22418,13.31,73116.0,-2.81,-3.71,-3.63,0,*55
1505693081.65,22419,13.31,73116.0,-2.81,-3.71,-3.63,0,*54
1505693082.92,22420,13.31,73118.3,-2.77,-3.59,-3.59,0,*54
1505693084.18,22421,13.31,73110.0,-2.81,-3.63,-3.63,0,*5C
1505693085.46,22422,13.31,73102.8,-2.77,-3.59,-3.59,0,*56
1505693086.73,22423,13.31,73110.8,-2.75,-3.55,-3.51,0,*51
1505693087.96,22424,13.31,73122.5,-2.79,-3.55,-3.55,0,*5E
1505693089.21,22425,13.31,73122.0,-2.79,-3.51,-3.55,0,*5B
1505693090.45,22426,13.31,73120.5,-2.79,-3.55,-3.51,0,*58
1505693091.69,22427,13.31,73116.0,-2.79,-3.51,-3.51,0,*5D
1505693092.94,22428,13.31,73114.8,-2.79,-3.55,-3.51,0,*56
1505693094.2,22429,13.31,73120.5,-2.77,-3.55,-3.55,0,*5D
1505693095.46,22430,13.31,73120.5,-2.77,-3.55,-3.55,0,*55
1505693096.72,22431,13.31,73118.5,-2.77,-3.55,-3.55,0,*54
1505693097.98,22432,13.31,73106.0,-2.77,-3.55,-3.51,0,*53
1505693099.25,22433,13.31,73100.5,-2.77,-3.55,-3.55,0,*56
1505693100.52,22434,13.31,73110.0,-2.75,-3.51,-3.51,0,*53
1505693101.79,22435,13.31,73118.3,-2.77,-3.55,-3.59,0,*5C
1505693103.05,22436,13.31,73112.3,-2.77,-3.67,-3.67,0,*53
1505693104.31,22437,13.31,73108.0,-2.77,-3.71,-3.67,0,*55
1505693105.57,22438,13.31,73124.3,-2.77,-3.71,-3.71,0,*5D
1505693106.84,22439,13.31,73116.3,-2.77,-3.67,-3.59,0,*51
1505693108.11,22440,13.31,73118.5,-2.77,-3.59,-3.67,0,*5F
1505693109.38,22441,13.31,73124.0,-2.77,-3.59,-3.67,0,*5E
1505693110.65,22442,13.31,73120.8,-2.75,-3.55,-3.63,0,*57
1505693111.91,22443,13.31,73108.0,-2.77,-3.67,-3.59,0,*5C
1505693113.18,22444,13.31,73108.0,-2.77,-3.59,-3.67,0,*5B
1505693114.45,22445,13.31,73114.0,-2.77,-3.59,-3.59,0,*57
1505693115.72,22446,13.31,73120.5,-2.77,-3.67,-3.67,0,*54
1505693116.99,22447,13.31,73126.0,-2.77,-3.59,-3.59,0,*55
1505693118.26,22448,13.31,73124.5,-2.77,-3.59,-3.67,0,*57
1505693119.53,22449,13.31,73116.5,-2.77,-3.59,-3.59,0,*5B
1505693120.8,22450,13.31,73112.0,-2.77,-3.59,-3.59,0,*53
1505693122.08,22451,13.31,73108.5,-2.77,-3.59,-3.59,0,*52
1505693123.34,22452,13.31,73100.5,-2.77,-3.55,-3.55,0,*51
1505693124.6,22453,13.31,73106.3,-2.77,-3.51,-3.55,0,*54
1505693125.87,22454,13.31,73106.0,-2.75,-3.51,-3.47,0,*52
1505693127.14,22455,13.31,73104.3,-2.75,-3.47,-3.47,0,*54
1505693128.41,22456,13.31,73104.0,-2.77,-3.55,-3.51,0,*51
1505693129.68,22457,13.31,73106.5,-2.77,-3.51,-3.51,0,*54
1505693130.93,22458,13.31,73110.5,-2.75,-3.47,-3.39,0,*50
1505693132.15,22459,13.31,73116.3,-2.77,-3.39,-3.39,0,*5A
1505693133.39,22460,13.31,73120.5,-2.77,-3.39,-3.43,0,*5D
1505693134.62,22461,13.31,73118.8,-2.75,-3.39,-3.39,0,*53
1505693135.85,22462,13.31,73122.8,-2.75,-3.35,-3.39,0,*5C
1505693137.08,22463,13.31,73122.8,-2.75,-3.35,-3.39,0,*5D
1505693138.3,22464,13.31,73118.8,-2.75,-3.39,-3.39,0,*56
1505693139.53,22465,13.31,73114.0,-2.75,-3.39,-3.35,0,*5B
1505693140.76,22466,13.31,73126.0,-2.75,-3.35,-3.39,0,*58
1505693142.03,22467,13.31,73120.8,-2.75,-3.51,-3.51,0,*55
1505693143.31,22468,13.31,73134.5,-2.75,-3.51,-3.51,0,*5A
1505693144.55,22469,13.31,73124.5,-2.73,-3.55,-3.51,0,*59
1505693145.79,22470,13.31,73120.0,-2.73,-3.55,-3.51,0,*51
1505693147.05,22471,13.31,73120.8,-2.75,-3.55,-3.63,0,*57
1505693148.32,22472,13.31,73118.8,-2.75,-3.55,-3.63,0,*54
1505693149.59,22473,13.31,73118.0,-2.75,-3.63,-3.63,0,*50
1505693150.86,22474,13.31,73124.8,-2.75,-3.67,-3.67,0,*57
1505693152.13,22475,13.31,73122.5,-2.75,-3.67,-3.67,0,*56
1505693153.4,22476,13.31,73122.0,-2.75,-3.63,-3.63,0,*55
1505693154.67,22477,13.31,73126.0,-2.75,-3.55,-3.55,0,*54
1505693155.93,22478,13.31,73120.8,-2.77,-3.59,-3.55,0,*55
1505693157.2,22479,13.31,73108.3,-2.75,-3.55,-3.55,0,*5A
1505693158.46,22480,13.31,73122.0,-2.75,-3.55,-3.55,0,*5C
1505693159.73,22481,13.31,73114.5,-2.75,-3.63,-3.55,0,*58
1505693161.01,22482,13.31,73116.0,-2.75,-3.63,-3.63,0,*5E
1505693162.28,22483,13.31,73116.5,-2.77,-3.67,-3.59,0,*50
1505693163.55,22484,13.31,73120.3,-2.75,-3.51,-3.51,0,*58
1505693164.82,22485,13.31,73118.8,-2.77,-3.59,-3.55,0,*57
1505693166.08,22486,13.31,73108.8,-2.75,-3.55,-3.51,0,*5E
1505693167.35,22487,13.31,73106.0,-2.75,-3.55,-3.47,0,*58
1505693168.62,22488,13.31,73108.5,-2.75,-3.55,-3.51,0,*50
1505693169.89,22489,13.31,73106.3,-2.75,-3.55,-3.55,0,*55
1505693171.15,22490,13.31,73114.8,-2.77,-3.67,-3.67,0,*5F
1505693172.42,22491,13.31,73118.3,-2.75,-3.67,-3.63,0,*58
1505693173.67,22492,13.31,73122.0,-2.75,-3.75,-3.63,0,*58
1505693174.94,22493,13.31,73122.5,-2.75,-3.67,-3.63,0,*5A
1505693176.21,22494,13.31,73122.3,-2.77,-3.59,-3.59,0,*5B
1505693177.49,22495,13.31,73128.0,-2.75,-3.51,-3.51,0,*58
1505693178.76,22496,13.31,73132.5,-2.75,-3.51,-3.51,0,*5B
1505693180.03,22497,13.31,73136.0,-2.77,-3.59,-3.59,0,*58
1505693181.3,22498,13.31,73130.0,-2.77,-3.59,-3.55,0,*5B
1505693182.56,22499,13.31,73124.3,-2.75,-3.55,-3.55,0,*54
1505693183.83,22500,13.31,73128.3,-2.75,-3.55,-3.55,0,*55
1505693185.1,22501,13.31,73124.0,-2.75,-3.63,-3.55,0,*51
1505693186.37,22502,13.31,73132.0,-2.75,-3.55,-3.55,0,*57
1505693187.63,22503,13.31,73134.3,-2.77,-3.67,-3.67,0,*54
1505693188.9,22504,13.31,73120.8,-2.77,-3.67,-3.59,0,*5E
1505693190.16,22505,13.31,73122.3,-2.77,-3.67,-3.71,0,*55
1505693191.44,22506,13.31,73110.0,-2.77,-3.59,-3.59,0,*51
1505693192.7,22507,13.31,73102.0,-2.77,-3.55,-3.55,0,*50
1505693193.97,22508,13.31,73120.3,-2.75,-3.51,-3.51,0,*5D
1505693195.24,22509,13.31,73120.3,-2.75,-3.47,-3.51,0,*5B
1505693196.5,22510,13.31,73120.0,-2.75,-3.47,-3.35,0,*51
1505693197.76,22511,13.31,73130.0,-2.77,-3.43,-3.43,0,*57
1505693199.03,22512,13.31,73120.0,-2.75,-3.47,-3.47,0,*56
1505693200.31,22513,13.31,73132.8,-2.75,-3.51,-3.51,0,*57
1505693201.55,22514,13.31,73116.5,-2.73,-3.51,-3.51,0,*56
1505693202.79,22515,13.31,73118.8,-2.73,-3.51,-3.63,0,*56
1505693204.06,22516,13.31,73130.5,-2.75,-3.63,-3.63,0,*52
1505693205.33,22517,13.31,73134.3,-2.75,-3.63,-3.55,0,*56
1505693206.6,22518,13.31,73136.8,-2.75,-3.55,-3.55,0,*5C
1505693207.87,22519,13.31,73128.3,-2.75,-3.55,-3.55,0,*5D
1505693209.13,22520,13.31,73126.3,-2.75,-3.55,-3.63,0,*52
1505693210.4,22521,13.31,73126.8,-2.75,-3.67,-3.67,0,*56
1505693211.67,22522,13.31,73134.3,-2.75,-3.67,-3.67,0,*55
1505693212.92,22523,13.31,73132.8,-2.77,-3.79,-3.71,0,*5E
1505693214.18,22524,13.31,73134.8,-2.75,-3.67,-3.63,0,*57
1505693215.45,22525,13.31,73128.0,-2.77,-3.67,-3.67,0,*50
1505693216.71,22526,13.31,73128.8,-2.77,-3.59,-3.67,0,*5E
1505693217.98,22527,13.31,73132.0,-2.75,-3.55,-3.55,0,*50
1505693219.25,22528,13.31,73134.3,-2.75,-3.63,-3.67,0,*5B
1505693220.52,22529,13.31,73126.5,-2.75,-3.63,-3.63,0,*5E
1505693221.79,22530,13.31,73120.3,-2.77,-3.71,-3.67,0,*53
1505693223.05,22531,13.31,73122.3,-2.75,-3.67,-3.63,0,*53
1505693224.32,22532,13.31,73128.0,-2.77,-3.71,-3.67,0,*51
1505693225.58,22533,13.31,73128.3,-2.75,-3.55,-3.55,0,*55
1505693226.85,22534,13.31,73130.8,-2.75,-3.55,-3.51,0,*56
1505693228.12,22535,13.31,73136.3,-2.77,-3.59,-3.55,0,*5D
1505693229.36,22536,13.31,73134.3,-2.73,-3.55,-3.51,0,*52
1505693230.62,22537,13.31,73134.0,-2.77,-3.59,-3.55,0,*5F
1505693231.89,22538,13.31,73132.8,-2.75,-3.55,-3.47,0,*5D
1505693233.16,22539,13.31,73128.8,-2.75,-3.55,-3.51,0,*5B
1505693234.43,22540,13.31,73128.5,-2.75,-3.55,-3.51,0,*55
1505693235.7,22541,13.31,73124.3,-2.75,-3.55,-3.55,0,*50
1505693236.96,22542,13.31,73122.3,-2.75,-3.55,-3.55,0,*53
1505693238.23,22543,13.31,73120.3,-2.77,-3.59,-3.67,0,*5D
1505693239.5,22544,13.31,73116.3,-2.77,-3.59,-3.59,0,*57
1505693240.77,22545,13.31,73116.8,-2.77,-3.59,-3.55,0,*5A
1505693242.04,22546,13.31,73126.0,-2.75,-3.47,-3.55,0,*54
1505693243.31,22547,13.31,73122.8,-2.77,-3.51,-3.51,0,*54
1505693244.56,22548,13.31,73122.5,-2.75,-3.47,-3.39,0,*50
1505693245.83,22549,13.31,73124.3,-2.75,-3.51,-3.47,0,*5F
1505693247.1,22550,13.31,73132.5,-2.75,-3.51,-3.51,0,*50
1505693248.38,22551,13.31,73142.8,-2.75,-3.51,-3.51,0,*51
1505693249.65,22552,13.31,73130.8,-2.75,-3.51,-3.51,0,*52
1505693250.92,22553,13.31,73130.5,-2.75,-3.51,-3.51,0,*53
1505693252.2,22554,13.31,73124.8,-2.75,-3.51,-3.51,0,*54
1505693253.46,22555,13.31,73122.5,-2.77,-3.55,-3.55,0,*57
1505693254.69,22556,13.31,73128.5,-2.73,-3.55,-3.55,0,*50
1505693255.94,22557,13.31,73124.8,-2.73,-3.63,-3.55,0,*54
1505693257.17,22558,13.31,73128.3,-2.73,-3.55,-3.55,0,*5E
1505693258.41,22559,13.31,73110.8,-2.73,-3.55,-3.55,0,*5F
1505693259.68,22560,13.31,73118.3,-2.77,-3.59,-3.59,0,*51
1505693260.96,22561,13.31,73132.5,-2.75,-3.51,-3.51,0,*52
1505693262.23,22562,13.31,73132.8,-2.75,-3.47,-3.51,0,*56
1505693263.5,22563,13.31,73128.5,-2.75,-3.51,-3.47,0,*57
1505693264.77,22564,13.31,73120.0,-2.75,-3.47,-3.51,0,*50
1505693266.04,22565,13.31,73114.3,-2.75,-3.51,-3.47,0,*51
1505693267.31,22566,13.31,73118.3,-2.75,-3.47,-3.47,0,*55
1505693268.58,22567,13.31,73118.0,-2.75,-3.51,-3.51,0,*54
1505693269.86,22568,13.31,73118.0,-2.75,-3.51,-3.51,0,*5B
1505693271.08,22569,13.31,73118.0,-2.73,-3.47,-3.39,0,*55
1505693272.28,22570,13.31,73120.8,-2.73,-3.39,-3.39,0,*54
1505693273.48,22571,13.31,73128.5,-2.73,-3.39,-3.35,0,*59
1505693274.68,22572,13.31,73124.5,-2.73,-3.39,-3.35,0,*5A
1505693275.87,22573,13.31,73122.5,-2.73,-3.35,-3.35,0,*57
1505693277.08,22574,13.31,73130.5,-2.69,-3.31,-3.35,0,*5F
1505693278.28,22575,13.31,73132.0,-2.69,-3.35,-3.31,0,*5E
1505693279.49,22576,13.31,73128.5,-2.69,-3.31,-3.35,0,*5D
1505693280.68,22577,13.31,73132.8,-2.73,-3.35,-3.39,0,*5F
1505693281.88,22578,13.31,73134.3,-2.69,-3.31,-3.31,0,*57
1505693283.09,22579,13.31,73136.5,-2.69,-3.35,-3.31,0,*52
1505693284.29,22580,13.31,73136.0,-2.69,-3.35,-3.31,0,*54
1505693285.49,22581,13.31,73142.5,-2.69,-3.31,-3.31,0,*51
1505693286.69,22582,13.31,73144.3,-2.73,-3.27,-3.27,0,*59
1505693287.9,22583,13.31,73144.8,-2.69,-3.35,-3.35,0,*53
1505693289.11,22584,13.31,73144.3,-2.69,-3.35,-3.27,0,*57
1505693290.3,22585,13.31,73148.3,-2.69,-3.23,-3.31,0,*56
1505693291.5,22586,13.31,73144.5,-2.69,-3.35,-3.31,0,*52
1505693292.71,22587,13.31,73150.3,-2.69,-3.31,-3.35,0,*53
1505693293.91,22588,13.31,73150.0,-2.69,-3.35,-3.31,0,*5C
1505693295.18,22589,13.31,73146.5,-2.67,-3.47,-3.47,0,*57
1505693296.44,22590,13.31,73140.3,-2.67,-3.47,-3.47,0,*5F
1505693297.71,22591,13.31,73134.8,-2.67,-3.47,-3.47,0,*5E
1505693298.96,22592,13.31,73136.0,-2.69,-3.47,-3.47,0,*53
1505693300.21,22593,13.31,73132.3,-2.69,-3.51,-3.59,0,*5A
1505693301.47,22594,13.31,73136.3,-2.69,-3.59,-3.59,0,*55
1505693302.67,22595,13.31,73136.0,-2.73,-3.75,-3.75,0,*5F
1505693303.88,22596,13.31,73132.8,-2.73,-3.75,-3.75,0,*5C
1505693305.08,22597,13.31,73126.8,-2.73,-3.79,-3.79,0,*5D
1505693306.29,22598,13.31,73126.8,-2.73,-3.79,-3.79,0,*52
1505693307.54,22599,13.31,73126.3,-2.67,-3.71,-3.75,0,*52
1505693308.78,22600,13.31,73118.5,-2.69,-3.71,-3.71,0,*5B
1505693310.02,22601,13.31,73122.3,-2.73,-3.67,-3.67,0,*51
1505693311.26,22602,13.31,73126.3,-2.73,-3.63,-3.63,0,*52
1505693312.5,22603,13.31,73128.0,-2.73,-3.63,-3.55,0,*56
1505693313.75,22604,13.31,73128.3,-2.73,-3.59,-3.59,0,*54
1505693314.99,22605,13.31,73128.3,-2.73,-3.63,-3.55,0,*50
1505693316.23,22606,13.31,73128.3,-2.73,-3.63,-3.55,0,*53